OBJECT H, 60242

Orbit data source: Space-Track

You're viewing an Uncataloged Satellite

Recently launched and/or uncataloged satellites may have evolving metadata. Metadata may include but not limited to: Owner, Maufacturer, Bus, Motor, and Mission.

OBJECT H, 60242 is a satellite in LEO that was launched on Tue, 09 Jul 2024 UTC via an ARIANE 62 launch vehicle from the French Guiana (FRGUI). Unknown objects in Earth's orbit typically refer to objects detected orbiting the Earth but have not yet been identified or cataloged. These objects could be anything from previously untracked satellites, spent rocket stages, debris from satellite collisions, or even natural meteoroids temporarily captured by Earth's gravity.

Loading next visibility...
Identifier
60242, 2024-128H
Orbit
LEO
Last TLE update
1 day ago
Origin
Flag of undefinedPlanetary Transportation Systems GmbH (DE)
Manufacturer
PTS
Mission
Operational Commercial Technology
Bus & Motor
CUBESAT 12U, Unknown motor
Mass
24 kg wet, 24 kg dry
Launch date (UTC)
2024-07-09 (10 months ago)
Launch vehicle
ARIANE 62
Launch site
French Guiana (FRGUI)
Object type
Unknown
Shape & HBR
Box, 0.3 m
Radar Cross Section
0.080 m², Small (<0.1 m²)

Expand to show TLE details & history

TLE from 1 day ago
0 OBJECT H
1 60242U 24128H   25141.03861868  .00006490  00000-0  45964-3 0  9994
2 60242  61.9800 146.2530 0050456  48.7380 311.8042 15.04781451 47298
Epoch: 2025-05-21T00:55Z
TLE epoch observation values (Epoch: 2025-05-21T00:55:36.653Z)
Latitude
0.00002°
Longitude
-106.57797°
Altitude
530.736 km
Speed
7.611 km/s
True Right ascension
09h 45m 00s
True Declination
0° 00' 00"
Sunlit
Object was in daylight at epoch
Visualization orbit readout
Latitude
-61.58449°
Longitude
171.9695°
Altitude
598.475 km
Speed
7.547 km/s
Apparent Right ascension
23h 59m 29s
Apparent Declination
-62° 37' 51"
Sunlit
Object is in daylight
Visualization observer readout
Local Sidereal Time
09:27:36
Azimuth
212.234° SW
Elevation
-57.972°
Doppler factor
1
Orbital elements
Apogee altitude
586.069 km
Perigee altitude
516.145 km
Semi-major axis
6,929.244 km
Eccentricity
0.00505
Inclination
61.98°
RAAN
146.253°
Arg. of periapsis
48.738°
True anomaly
Unknown
Mean anomaly
311.8042°
Eccentric anomaly
Unknown
Mean motion
3.76283 °/min
Orbital period
95.67 mins
BSTAR
0.00045964
Loading maneuver chart data...
Loading SW <> Apogee altitude chart data...
Loading historical data...
Loading historical data...
Loading historical data...
Loading historical data...
Loading historical data...
Loading historical data...
Loading historical data...

OBJECT H Visibility forecast

Observer location: undefined°, undefined°

Span
Click to sort rows by Start time (UTC) header in descending order
Start Az.
Max El. time (UTC)
Max El. Az.
Max El.
End time (UTC)
End Az.
5 mins2025-05-22 02:37:29.503Z243.193° WSW2025-05-22 02:39:29.503Z303.625° NW37.51°2025-05-22 02:42:29.503Z21.997° NNE
4 mins2025-05-22 09:20:29.503Z15.81° NNE2025-05-22 09:21:29.503Z33.971° NE17.141°2025-05-22 09:24:29.503Z83.518° E
6 mins2025-05-22 10:58:29.503Z306.282° NW2025-05-22 11:00:29.503Z258.309° W37.684°2025-05-22 11:04:29.503Z162.843° S
|